Time,TemperatureF,DewpointF,PressureIn,WindDirection,WindDirectionDegrees,WindSpeedMPH,WindSpeedGustMPH,Humidity,HourlyPrecipIn,Conditions,Clouds,dailyrainin,SoftwareType,DateUTC
2013-04-03 00:00:00,46.7,41.2,29.90,SSW,198,0.0,5.0,81,0.00,,---,0.00,VWS V14.01,2013-04-03 07:00:00,
2013-04-03 00:05:00,46.4,40.9,29.90,SSW,198,0.0,3.0,81,0.00,,---,0.00,VWS V14.01,2013-04-03 07:05:00,
2013-04-03 00:10:00,45.8,40.6,29.90,SSW,198,0.0,3.0,82,0.00,,---,0.00,VWS V14.01,2013-04-03 07:10:00,
2013-04-03 00:15:00,45.6,40.4,29.90,SSW,198,0.0,3.0,82,0.00,,---,0.00,VWS V14.01,2013-04-03 07:15:00,
2013-04-03 00:20:00,44.5,40.0,29.90,SSW,198,0.0,3.0,84,0.00,,---,0.00,VWS V14.01,2013-04-03 07:20:00,
2013-04-03 00:25:00,44.0,39.8,29.90,SSW,198,0.0,3.0,85,0.00,,---,0.00,VWS V14.01,2013-04-03 07:25:00,
2013-04-03 00:30:00,43.5,39.6,29.90,SSW,198,0.0,3.0,86,0.00,,---,0.00,VWS V14.01,2013-04-03 07:30:00,
2013-04-03 00:35:00,42.9,39.0,29.90,SSW,198,0.0,3.0,86,0.00,,---,0.00,VWS V14.01,2013-04-03 07:35:00,
2013-04-03 00:40:00,43.0,39.7,29.90,SSW,198,0.0,3.0,88,0.00,,---,0.00,VWS V14.01,2013-04-03 07:40:00,
2013-04-03 00:45:00,42.5,39.2,29.91,SSW,198,0.0,3.0,88,0.00,,---,0.00,VWS V14.01,2013-04-03 07:45:00,
2013-04-03 00:50:00,42.5,39.5,29.91,SSW,198,0.0,3.0,89,0.00,,---,0.00,VWS V14.01,2013-04-03 07:50:00,
2013-04-03 00:55:00,42.7,40.0,29.91,SSW,198,0.0,3.0,90,0.00,,---,0.00,VWS V14.01,2013-04-03 07:55:00,
2013-04-03 01:00:00,42.4,39.4,29.91,SSW,198,0.0,3.0,89,0.00,,---,0.00,VWS V14.01,2013-04-03 08:00:00,
2013-04-03 01:05:00,42.1,39.4,29.91,SSW,198,0.0,0.0,90,0.00,,---,0.00,VWS V14.01,2013-04-03 08:05:00,
2013-04-03 01:10:00,41.8,39.1,29.91,SSW,198,0.0,0.0,90,0.00,,---,0.00,VWS V14.01,2013-04-03 08:10:00,
2013-04-03 01:15:00,41.7,39.0,29.91,SSW,198,0.0,2.0,90,0.00,,---,0.00,VWS V14.01,2013-04-03 08:15:00,
2013-04-03 01:20:00,41.3,38.6,29.91,SSW,198,0.0,2.0,90,0.00,,---,0.00,VWS V14.01,2013-04-03 08:20:00,
2013-04-03 01:25:00,41.4,39.0,29.91,SSW,198,0.0,2.0,91,0.00,,---,0.00,VWS V14.01,2013-04-03 08:25:00,
2013-04-03 01:30:00,41.6,39.2,29.92,SSW,198,0.0,2.0,91,0.00,,---,0.00,VWS V14.01,2013-04-03 08:30:00,
2013-04-03 01:35:00,41.8,39.4,29.92,SSW,198,0.0,2.0,91,0.00,,---,0.00,VWS V14.01,2013-04-03 08:35:00,
2013-04-03 01:40:00,41.6,38.9,29.92,SSW,198,0.0,2.0,90,0.00,,---,0.00,VWS V14.01,2013-04-03 08:40:00,
2013-04-03 01:45:00,41.5,39.1,29.92,SSW,198,0.0,2.0,91,0.00,,---,0.00,VWS V14.01,2013-04-03 08:45:00,
2013-04-03 01:50:00,41.7,39.5,29.92,SSW,198,0.0,2.0,92,0.00,,---,0.00,VWS V14.01,2013-04-03 08:50:00,
2013-04-03 01:55:00,41.6,39.2,29.92,SSW,198,0.0,2.0,91,0.00,,---,0.00,VWS V14.01,2013-04-03 08:55:00,
2013-04-03 02:00:00,41.5,39.1,29.92,SSW,198,0.0,2.0,91,0.00,,---,0.00,VWS V14.01,2013-04-03 09:00:00,
2013-04-03 02:06:00,41.8,39.7,29.92,South,183,1.0,4.0,92,0.00,,---,0.00,VWS V14.01,2013-04-03 09:06:00,
2013-04-03 02:11:00,42.5,40.3,29.92,South,183,2.0,4.0,92,0.00,,---,0.00,VWS V14.01,2013-04-03 09:11:00,
2013-04-03 02:16:00,42.8,40.6,29.92,South,184,0.0,5.0,92,0.00,,---,0.00,VWS V14.01,2013-04-03 09:16:00,
2013-04-03 02:21:00,43.0,40.6,29.92,South,184,0.0,5.0,91,0.00,,---,0.00,VWS V14.01,2013-04-03 09:21:00,
2013-04-03 02:27:00,42.9,40.5,29.92,South,187,0.0,5.0,91,0.00,,---,0.00,VWS V14.01,2013-04-03 09:27:00,
2013-04-03 02:32:00,42.9,40.5,29.92,South,186,2.0,5.0,91,0.00,,---,0.00,VWS V14.01,2013-04-03 09:32:00,
2013-04-03 02:37:00,43.0,40.6,29.92,SSW,203,0.0,5.0,91,0.00,,---,0.00,VWS V14.01,2013-04-03 09:37:00,
2013-04-03 02:42:00,43.1,40.7,29.92,SSW,203,0.0,5.0,91,0.00,,---,0.00,VWS V14.01,2013-04-03 09:42:00,
2013-04-03 02:47:00,43.2,40.8,29.92,SSE,162,1.0,6.0,91,0.00,,---,0.00,VWS V14.01,2013-04-03 09:47:00,
2013-04-03 02:52:00,43.1,40.4,29.92,SSW,213,4.0,6.0,90,0.00,,---,0.00,VWS V14.01,2013-04-03 09:52:00,
2013-04-03 02:57:00,43.2,40.8,29.92,South,188,2.0,7.0,91,0.00,,---,0.00,VWS V14.01,2013-04-03 09:57:00,
2013-04-03 03:02:00,43.2,40.5,29.92,SSW,192,1.0,3.0,90,0.00,,---,0.00,VWS V14.01,2013-04-03 10:02:00,
2013-04-03 03:07:00,43.0,40.3,29.93,SSW,208,3.0,6.0,90,0.00,,---,0.00,VWS V14.01,2013-04-03 10:07:00,
2013-04-03 03:12:00,42.7,40.0,29.93,SSW,209,1.0,6.0,90,0.00,,---,0.00,VWS V14.01,2013-04-03 10:12:00,
2013-04-03 03:17:00,42.4,39.7,29.93,SSW,209,1.0,6.0,90,0.00,,---,0.00,VWS V14.01,2013-04-03 10:17:00,
2013-04-03 03:22:00,42.2,39.5,29.92,SSW,209,0.0,6.0,90,0.00,,---,0.00,VWS V14.01,2013-04-03 10:22:00,
2013-04-03 03:27:00,42.1,39.7,29.93,SSW,211,3.0,6.0,91,0.00,,---,0.00,VWS V14.01,2013-04-03 10:27:00,
2013-04-03 03:32:00,42.2,39.8,29.92,SW,232,2.0,6.0,91,0.00,,---,0.00,VWS V14.01,2013-04-03 10:32:00,
2013-04-03 03:37:00,42.2,39.5,29.92,SSW,192,2.0,6.0,90,0.00,,---,0.00,VWS V14.01,2013-04-03 10:37:00,
2013-04-03 03:42:00,42.0,39.3,29.92,SSW,192,1.0,6.0,90,0.00,,---,0.00,VWS V14.01,2013-04-03 10:42:00,
2013-04-03 03:47:00,41.6,39.2,29.92,SSW,192,1.0,6.0,91,0.00,,---,0.00,VWS V14.01,2013-04-03 10:47:00,
2013-04-03 03:52:00,41.6,39.2,29.92,SSW,198,0.0,6.0,91,0.00,,---,0.00,VWS V14.01,2013-04-03 10:52:00,
2013-04-03 03:57:00,41.1,38.7,29.93,SSW,195,0.0,6.0,91,0.00,,---,0.00,VWS V14.01,2013-04-03 10:57:00,
2013-04-03 04:02:00,41.1,39.0,29.93,SSW,195,0.0,0.0,92,0.00,,---,0.00,VWS V14.01,2013-04-03 11:02:00,
2013-04-03 04:07:00,40.9,38.8,29.93,ESE,119,0.0,1.0,92,0.00,,---,0.00,VWS V14.01,2013-04-03 11:07:00,
2013-04-03 04:12:00,40.5,38.6,29.93,ESE,123,0.0,2.0,93,0.00,,---,0.00,VWS V14.01,2013-04-03 11:12:00,
2013-04-03 04:17:00,40.4,38.5,29.93,ESE,123,0.0,2.0,93,0.00,,---,0.00,VWS V14.01,2013-04-03 11:17:00,
2013-04-03 04:22:00,40.0,38.1,29.93,WSW,239,0.0,2.0,93,0.00,,---,0.00,VWS V14.01,2013-04-03 11:22:00,
2013-04-03 04:27:00,39.7,37.8,29.93,SW,236,0.0,2.0,93,0.00,,---,0.00,VWS V14.01,2013-04-03 11:27:00,
2013-04-03 04:32:00,40.0,38.4,29.93,SW,233,0.0,2.0,94,0.00,,---,0.00,VWS V14.01,2013-04-03 11:32:00,
2013-04-03 04:37:00,40.2,38.6,29.93,SW,232,0.0,2.0,94,0.00,,---,0.00,VWS V14.01,2013-04-03 11:37:00,
2013-04-03 04:42:00,40.2,38.6,29.93,South,184,3.0,5.0,94,0.00,,---,0.00,VWS V14.01,2013-04-03 11:42:00,
2013-04-03 04:47:00,40.2,38.6,29.94,South,184,1.0,5.0,94,0.00,,---,0.00,VWS V14.01,2013-04-03 11:47:00,
2013-04-03 04:52:00,40.5,38.9,29.94,South,176,0.0,5.0,94,0.00,,---,0.00,VWS V14.01,2013-04-03 11:52:00,
2013-04-03 04:57:00,40.4,38.8,29.94,South,176,0.0,5.0,94,0.00,,---,0.00,VWS V14.01,2013-04-03 11:57:00,
2013-04-03 05:02:00,40.5,38.9,29.94,South,176,1.0,2.0,94,0.00,,---,0.00,VWS V14.01,2013-04-03 12:02:00,
2013-04-03 05:07:00,39.9,38.0,29.94,South,176,1.0,2.0,93,0.00,,---,0.00,VWS V14.01,2013-04-03 12:07:00,
2013-04-03 05:12:00,39.5,37.9,29.94,South,176,1.0,2.0,94,0.00,,---,0.00,VWS V14.01,2013-04-03 12:12:00,
2013-04-03 05:17:00,39.1,37.5,29.94,South,176,0.0,2.0,94,0.00,,---,0.00,VWS V14.01,2013-04-03 12:17:00,
2013-04-03 05:22:00,39.0,37.7,29.95,South,176,0.0,2.0,95,0.00,,---,0.00,VWS V14.01,2013-04-03 12:22:00,
2013-04-03 05:27:00,38.9,37.6,29.94,South,176,0.0,2.0,95,0.00,,---,0.00,VWS V14.01,2013-04-03 12:27:00,
2013-04-03 05:33:00,38.8,37.5,29.95,South,176,0.0,2.0,95,0.00,,---,0.00,VWS V14.01,2013-04-03 12:33:00,
2013-04-03 05:38:00,38.7,37.4,29.95,South,176,0.0,2.0,95,0.00,,---,0.00,VWS V14.01,2013-04-03 12:38:00,
2013-04-03 05:43:00,38.5,37.2,29.95,South,176,0.0,2.0,95,0.00,,---,0.00,VWS V14.01,2013-04-03 12:43:00,
2013-04-03 05:48:00,37.9,36.6,29.94,South,176,0.0,2.0,95,0.00,,---,0.00,VWS V14.01,2013-04-03 12:48:00,
2013-04-03 05:53:00,37.6,36.6,29.95,South,176,0.0,2.0,96,0.00,,---,0.00,VWS V14.01,2013-04-03 12:53:00,
2013-04-03 05:58:00,37.1,36.1,29.94,South,176,0.0,2.0,96,0.00,,---,0.00,VWS V14.01,2013-04-03 12:58:00,
2013-04-03 06:03:00,37.4,36.4,29.95,South,176,0.0,0.0,96,0.00,,---,0.00,VWS V14.01,2013-04-03 13:03:00,
2013-04-03 06:08:00,37.7,36.7,29.95,South,176,0.0,0.0,96,0.00,,---,0.00,VWS V14.01,2013-04-03 13:08:00,
2013-04-03 06:13:00,37.6,36.6,29.95,South,176,0.0,0.0,96,0.00,,---,0.00,VWS V14.01,2013-04-03 13:13:00,
2013-04-03 06:18:00,37.5,36.5,29.95,South,176,0.0,0.0,96,0.00,,---,0.00,VWS V14.01,2013-04-03 13:18:00,
2013-04-03 06:23:00,37.2,36.2,29.95,South,176,0.0,0.0,96,0.00,,---,0.00,VWS V14.01,2013-04-03 13:23:00,
2013-04-03 06:28:00,36.6,35.6,29.95,South,176,0.0,0.0,96,0.00,,---,0.00,VWS V14.01,2013-04-03 13:28:00,
2013-04-03 06:33:00,36.1,35.1,29.95,South,176,0.0,0.0,96,0.00,,---,0.00,VWS V14.01,2013-04-03 13:33:00,
2013-04-03 06:38:00,36.2,35.2,29.95,South,176,0.0,0.0,96,0.00,,---,0.00,VWS V14.01,2013-04-03 13:38:00,
2013-04-03 06:43:00,35.8,34.8,29.95,South,176,0.0,0.0,96,0.00,,---,0.00,VWS V14.01,2013-04-03 13:43:00,
2013-04-03 06:48:00,35.8,34.8,29.95,South,176,0.0,2.0,96,0.00,,---,0.00,VWS V14.01,2013-04-03 13:48:00,
2013-04-03 06:53:00,35.6,34.6,29.95,South,176,0.0,2.0,96,0.00,,---,0.00,VWS V14.01,2013-04-03 13:53:00,
2013-04-03 06:58:00,35.5,34.5,29.95,South,176,0.0,2.0,96,0.00,,---,0.00,VWS V14.01,2013-04-03 13:58:00,
2013-04-03 07:03:00,35.9,35.1,29.95,South,176,0.0,0.0,97,0.00,,---,0.00,VWS V14.01,2013-04-03 14:03:00,
2013-04-03 07:08:00,36.0,35.2,29.96,South,176,0.0,1.0,97,0.00,,---,0.00,VWS V14.01,2013-04-03 14:08:00,
2013-04-03 07:13:00,36.0,35.2,29.96,South,176,0.0,1.0,97,0.00,,---,0.00,VWS V14.01,2013-04-03 14:13:00,
2013-04-03 07:18:00,36.0,35.2,29.96,South,176,0.0,1.0,97,0.00,,---,0.00,VWS V14.01,2013-04-03 14:18:00,
2013-04-03 07:23:00,36.0,35.2,29.96,South,176,0.0,1.0,97,0.00,,---,0.00,VWS V14.01,2013-04-03 14:23:00,
2013-04-03 07:28:00,36.3,35.5,29.96,South,176,0.0,1.0,97,0.00,,---,0.00,VWS V14.01,2013-04-03 14:28:00,
2013-04-03 07:33:00,36.6,35.8,29.97,South,176,0.0,1.0,97,0.00,,---,0.00,VWS V14.01,2013-04-03 14:33:00,
2013-04-03 07:38:00,36.8,36.0,29.97,South,176,0.0,1.0,97,0.00,,---,0.00,VWS V14.01,2013-04-03 14:38:00,
2013-04-03 07:43:00,37.9,37.1,29.97,South,176,0.0,1.0,97,0.00,,---,0.00,VWS V14.01,2013-04-03 14:43:00,
2013-04-03 07:48:00,39.3,38.5,29.97,South,176,0.0,1.0,97,0.00,,---,0.00,VWS V14.01,2013-04-03 14:48:00,
2013-04-03 07:53:00,39.8,39.0,29.97,South,176,1.0,2.0,97,0.00,,---,0.00,VWS V14.01,2013-04-03 14:53:00,
2013-04-03 07:58:00,40.7,39.9,29.97,South,176,0.0,4.0,97,0.00,,---,0.00,VWS V14.01,2013-04-03 14:58:00,
2013-04-03 08:03:00,41.1,40.3,29.97,WSW,244,0.0,6.0,97,0.00,,---,0.00,VWS V14.01,2013-04-03 15:03:00,
2013-04-03 08:08:00,41.8,41.0,29.97,WSW,244,0.0,6.0,97,0.00,,---,0.00,VWS V14.01,2013-04-03 15:08:00,
2013-04-03 08:13:00,42.4,41.6,29.97,SSW,207,2.0,6.0,97,0.00,,---,0.00,VWS V14.01,2013-04-03 15:13:00,
2013-04-03 08:18:00,42.9,41.8,29.97,SSW,200,1.0,6.0,96,0.00,,---,0.00,VWS V14.01,2013-04-03 15:18:00,
2013-04-03 08:23:00,43.5,41.9,29.97,SSE,154,6.0,6.0,94,0.00,,---,0.00,VWS V14.01,2013-04-03 15:23:00,
2013-04-03 08:28:00,44.1,42.2,29.97,South,188,4.0,6.0,93,0.00,,---,0.00,VWS V14.01,2013-04-03 15:28:00,
2013-04-03 08:33:00,44.6,42.1,29.97,South,171,1.0,6.0,91,0.00,,---,0.00,VWS V14.01,2013-04-03 15:33:00,
2013-04-03 08:38:00,45.2,42.7,29.97,SSE,167,5.0,6.0,91,0.00,,---,0.00,VWS V14.01,2013-04-03 15:38:00,
2013-04-03 08:43:00,45.9,43.4,29.97,SW,222,2.0,7.0,91,0.00,,---,0.00,VWS V14.01,2013-04-03 15:43:00,
2013-04-03 08:48:00,46.4,43.0,29.96,South,177,5.0,9.0,88,0.00,,---,0.00,VWS V14.01,2013-04-03 15:48:00,
2013-04-03 08:53:00,47.3,44.2,29.97,South,186,0.0,9.0,89,0.00,,---,0.00,VWS V14.01,2013-04-03 15:53:00,
2013-04-03 08:58:00,47.6,43.3,29.96,South,184,4.0,9.0,85,0.00,,---,0.00,VWS V14.01,2013-04-03 15:58:00,
2013-04-03 09:03:00,47.9,43.6,29.96,SW,231,4.0,4.0,85,0.00,,---,0.00,VWS V14.01,2013-04-03 16:03:00,
2013-04-03 09:08:00,48.2,43.0,29.97,SSW,208,3.0,6.0,82,0.00,,---,0.00,VWS V14.01,2013-04-03 16:08:00,
2013-04-03 09:13:00,48.5,43.6,29.97,South,181,5.0,9.0,83,0.00,,---,0.00,VWS V14.01,2013-04-03 16:13:00,
2013-04-03 09:18:00,48.8,43.6,29.97,SSW,203,3.0,9.0,82,0.00,,---,0.00,VWS V14.01,2013-04-03 16:18:00,
2013-04-03 09:23:00,49.2,43.0,29.97,WSW,238,8.0,11.0,79,0.00,,---,0.00,VWS V14.01,2013-04-03 16:23:00,
2013-04-03 09:28:00,49.3,42.4,29.97,West,271,5.0,11.0,77,0.00,,---,0.00,VWS V14.01,2013-04-03 16:28:00,
2013-04-03 09:33:00,50.1,42.5,29.97,SSW,192,3.0,11.0,75,0.00,,---,0.00,VWS V14.01,2013-04-03 16:33:00,
2013-04-03 09:38:00,50.3,41.6,29.97,SSE,167,1.0,11.0,72,0.00,,---,0.00,VWS V14.01,2013-04-03 16:38:00,
2013-04-03 09:43:00,50.1,41.8,29.97,SSW,192,2.0,11.0,73,0.00,,---,0.00,VWS V14.01,2013-04-03 16:43:00,
2013-04-03 09:48:00,50.4,42.4,29.98,SSW,200,5.0,11.0,74,0.00,,---,0.00,VWS V14.01,2013-04-03 16:48:00,
2013-04-03 09:53:00,51.1,43.1,29.98,WSW,257,5.0,11.0,74,0.00,,---,0.00,VWS V14.01,2013-04-03 16:53:00,
2013-04-03 09:58:00,51.6,41.4,29.98,SSW,207,5.0,11.0,68,0.00,,---,0.00,VWS V14.01,2013-04-03 16:58:00,
2013-04-03 10:03:00,51.6,42.2,29.98,WSW,238,7.0,8.0,70,0.00,,---,0.00,VWS V14.01,2013-04-03 17:03:00,
2013-04-03 10:08:00,51.3,40.7,29.98,SW,230,7.0,10.0,67,0.00,,---,0.00,VWS V14.01,2013-04-03 17:08:00,
2013-04-03 10:13:00,52.3,41.7,29.97,South,186,2.0,10.0,67,0.00,,---,0.00,VWS V14.01,2013-04-03 17:13:00,
2013-04-03 10:18:00,52.5,41.9,29.97,SSW,212,2.0,10.0,67,0.00,,---,0.00,VWS V14.01,2013-04-03 17:18:00,
2013-04-03 10:23:00,52.8,42.5,29.97,NW,304,0.0,10.0,68,0.00,,---,0.00,VWS V14.01,2013-04-03 17:23:00,
2013-04-03 10:28:00,52.8,42.5,29.97,SW,236,3.0,10.0,68,0.00,,---,0.00,VWS V14.01,2013-04-03 17:28:00,
2013-04-03 10:33:00,53.0,43.1,29.97,SW,228,3.0,10.0,69,0.00,,---,0.00,VWS V14.01,2013-04-03 17:33:00,
2013-04-03 10:38:00,53.6,42.9,29.97,SW,225,6.0,10.0,67,0.00,,---,0.00,VWS V14.01,2013-04-03 17:38:00,
2013-04-03 10:43:00,53.9,44.0,29.97,SSW,198,1.0,10.0,69,0.00,,---,0.00,VWS V14.01,2013-04-03 17:43:00,
2013-04-03 10:48:00,53.4,43.5,29.97,SSE,165,1.0,10.0,69,0.00,,---,0.00,VWS V14.01,2013-04-03 17:48:00,
2013-04-03 10:54:00,53.8,42.7,29.97,SSE,165,6.0,10.0,66,0.00,,---,0.00,VWS V14.01,2013-04-03 17:54:00,
2013-04-03 10:59:00,52.1,42.6,29.97,South,182,1.0,10.0,70,0.00,,---,0.00,VWS V14.01,2013-04-03 17:59:00,
2013-04-03 11:04:00,52.1,43.7,29.97,WSW,238,5.0,7.0,73,0.00,,---,0.00,VWS V14.01,2013-04-03 18:04:00,
2013-04-03 11:09:00,52.5,43.0,29.97,South,169,1.0,8.0,70,0.00,,---,0.00,VWS V14.01,2013-04-03 18:09:00,
2013-04-03 11:14:00,52.1,43.0,29.97,SW,224,0.0,8.0,71,0.00,,---,0.00,VWS V14.01,2013-04-03 18:14:00,
2013-04-03 11:19:00,52.9,43.8,29.97,West,261,6.0,9.0,71,0.00,,---,0.00,VWS V14.01,2013-04-03 18:19:00,
2013-04-03 11:24:00,54.4,42.9,29.97,SSW,196,4.0,9.0,65,0.00,,---,0.00,VWS V14.01,2013-04-03 18:24:00,
2013-04-03 11:29:00,54.4,44.5,29.96,SW,227,4.0,9.0,69,0.00,,---,0.00,VWS V14.01,2013-04-03 18:29:00,
2013-04-03 11:35:00,54.4,44.1,29.96,ENE,67,1.0,10.0,68,0.00,,---,0.00,VWS V14.01,2013-04-03 18:35:00,
2013-04-03 11:40:00,56.6,45.0,29.96,WSW,252,3.0,10.0,65,0.00,,---,0.00,VWS V14.01,2013-04-03 18:40:00,
2013-04-03 11:45:00,56.7,44.7,29.96,SW,232,5.0,10.0,64,0.00,,---,0.00,VWS V14.01,2013-04-03 18:45:00,
2013-04-03 11:50:00,56.2,43.8,29.95,South,170,4.0,10.0,63,0.00,,---,0.00,VWS V14.01,2013-04-03 18:50:00,
2013-04-03 11:55:00,55.3,42.9,29.95,SW,222,2.0,10.0,63,0.00,,---,0.00,VWS V14.01,2013-04-03 18:55:00,
2013-04-03 12:00:00,56.0,44.0,29.95,WSW,237,3.0,10.0,64,0.00,,---,0.00,VWS V14.01,2013-04-03 19:00:00,
2013-04-03 12:05:00,55.5,43.1,29.95,West,259,0.0,7.0,63,0.00,,---,0.00,VWS V14.01,2013-04-03 19:05:00,
2013-04-03 12:10:00,56.9,43.6,29.95,SSE,155,8.0,9.0,61,0.00,,---,0.00,VWS V14.01,2013-04-03 19:10:00,
2013-04-03 12:15:00,57.0,42.8,29.94,SW,233,0.0,9.0,59,0.00,,---,0.00,VWS V14.01,2013-04-03 19:15:00,
2013-04-03 12:20:00,56.8,43.5,29.94,South,173,6.0,9.0,61,0.00,,---,0.00,VWS V14.01,2013-04-03 19:20:00,
2013-04-03 12:25:00,56.9,43.2,29.94,SW,234,3.0,9.0,60,0.00,,---,0.00,VWS V14.01,2013-04-03 19:25:00,
2013-04-03 12:30:00,57.3,44.0,29.94,WSW,238,6.0,9.0,61,0.00,,---,0.00,VWS V14.01,2013-04-03 19:30:00,
2013-04-03 12:35:00,58.4,44.6,29.94,West,274,3.0,9.0,60,0.00,,---,0.00,VWS V14.01,2013-04-03 19:35:00,
2013-04-03 12:40:00,57.9,43.7,29.94,SW,226,3.0,9.0,59,0.00,,---,0.00,VWS V14.01,2013-04-03 19:40:00,
2013-04-03 12:45:00,57.7,43.0,29.94,SW,219,5.0,9.0,58,0.00,,---,0.00,VWS V14.01,2013-04-03 19:45:00,
2013-04-03 12:50:00,58.0,43.8,29.94,South,175,2.0,9.0,59,0.00,,---,0.00,VWS V14.01,2013-04-03 19:50:00,
2013-04-03 12:55:00,58.1,43.4,29.94,South,184,6.0,9.0,58,0.00,,---,0.00,VWS V14.01,2013-04-03 19:55:00,
2013-04-03 13:00:00,58.1,43.0,29.93,South,173,6.0,9.0,57,0.00,,---,0.00,VWS V14.01,2013-04-03 20:00:00,
2013-04-03 13:05:00,58.7,43.5,29.93,SW,227,0.0,6.0,57,0.00,,---,0.00,VWS V14.01,2013-04-03 20:05:00,
2013-04-03 13:10:00,59.2,43.5,29.93,SE,140,5.0,8.0,56,0.00,,---,0.00,VWS V14.01,2013-04-03 20:10:00,
2013-04-03 13:28:00,58.6,43.4,29.93,SW,216,1.0,1.0,57,0.00,,---,0.00,VWS V14.01,2013-04-03 20:28:00,
2013-04-03 13:33:00,60.2,46.3,29.93,South,189,4.0,10.0,60,0.00,,---,0.00,VWS V14.01,2013-04-03 20:33:00,
2013-04-03 13:38:00,60.2,44.0,29.93,SSW,206,2.0,10.0,55,0.00,,---,0.00,VWS V14.01,2013-04-03 20:38:00,
2013-04-03 13:43:00,59.5,43.3,29.93,WSW,240,1.0,10.0,55,0.00,,---,0.00,VWS V14.01,2013-04-03 20:43:00,
2013-04-03 13:48:00,59.8,44.1,29.93,WNW,284,1.0,10.0,56,0.00,,---,0.00,VWS V14.01,2013-04-03 20:48:00,
2013-04-03 13:53:00,60.2,43.0,29.93,SW,228,5.0,10.0,53,0.00,,---,0.00,VWS V14.01,2013-04-03 20:53:00,
2013-04-03 13:58:00,60.5,44.3,29.93,SW,229,0.0,10.0,55,0.00,,---,0.00,VWS V14.01,2013-04-03 20:58:00,
2013-04-03 14:00:00,60.6,43.4,29.93,SW,226,4.0,10.0,53,0.00,,---,0.00,VWS V14.01,2013-04-03 21:00:00,
2013-04-03 14:03:00,60.8,45.0,29.93,SW,225,1.0,4.0,56,0.00,,---,0.00,VWS V14.01,2013-04-03 21:03:00,
2013-04-03 14:08:00,61.2,41.9,29.93,SW,227,8.0,13.0,49,0.00,,---,0.00,VWS V14.01,2013-04-03 21:08:00,
2013-04-03 14:13:00,60.7,41.5,29.94,SW,229,8.0,13.0,49,0.00,,---,0.00,VWS V14.01,2013-04-03 21:13:00,
2013-04-03 14:18:00,61.3,42.5,29.94,SW,214,7.0,13.0,50,0.00,,---,0.00,VWS V14.01,2013-04-03 21:18:00,
2013-04-03 14:23:00,61.4,43.1,29.93,SSE,162,5.0,13.0,51,0.00,,---,0.00,VWS V14.01,2013-04-03 21:23:00,
2013-04-03 14:28:00,60.8,42.6,29.93,WSW,250,4.0,13.0,51,0.00,,---,0.00,VWS V14.01,2013-04-03 21:28:00,
2013-04-03 14:33:00,62.6,42.1,29.93,SW,215,2.0,13.0,47,0.00,,---,0.00,VWS V14.01,2013-04-03 21:33:00,
2013-04-03 14:38:00,61.2,40.3,29.94,SW,214,3.0,13.0,46,0.00,,---,0.00,VWS V14.01,2013-04-03 21:38:00,
2013-04-03 14:43:00,61.1,41.8,29.93,SW,234,5.0,13.0,49,0.00,,---,0.00,VWS V14.01,2013-04-03 21:43:00,
2013-04-03 14:48:00,61.3,42.5,29.94,SW,221,4.0,13.0,50,0.00,,---,0.00,VWS V14.01,2013-04-03 21:48:00,
2013-04-03 14:53:00,60.7,41.5,29.93,SW,215,5.0,13.0,49,0.00,,---,0.00,VWS V14.01,2013-04-03 21:53:00,
2013-04-03 14:58:00,61.5,40.5,29.94,SSE,157,6.0,13.0,46,0.00,,---,0.00,VWS V14.01,2013-04-03 21:58:00,
2013-04-03 15:00:00,60.7,41.5,29.94,SSE,163,7.0,13.0,49,0.00,,---,0.00,VWS V14.01,2013-04-03 22:00:00,
2013-04-03 15:03:00,60.7,41.5,29.93,SSW,211,2.0,7.0,49,0.00,,---,0.00,VWS V14.01,2013-04-03 22:03:00,
2013-04-03 15:08:00,61.3,42.5,29.93,SSE,164,2.0,7.0,50,0.00,,---,0.00,VWS V14.01,2013-04-03 22:08:00,
2013-04-03 15:13:00,62.1,41.1,29.93,NW,306,2.0,9.0,46,0.00,,---,0.00,VWS V14.01,2013-04-03 22:13:00,
2013-04-03 15:18:00,62.7,41.1,29.93,SW,223,1.0,9.0,45,0.00,,---,0.00,VWS V14.01,2013-04-03 22:18:00,
2013-04-03 15:23:00,63.1,40.3,29.92,SSW,202,5.0,11.0,43,0.00,,---,0.00,VWS V14.01,2013-04-03 22:23:00,
2013-04-03 15:28:00,62.9,40.1,29.92,South,186,4.0,11.0,43,0.00,,---,0.00,VWS V14.01,2013-04-03 22:28:00,
2013-04-03 15:33:00,63.4,39.9,29.92,WSW,254,5.0,11.0,42,0.00,,---,0.00,VWS V14.01,2013-04-03 22:33:00,
2013-04-03 16:00:00,62.7,38.7,29.91,SW,225,3.0,11.0,41,0.00,,---,0.00,VWS V14.01,2013-04-03 23:00:00,
2013-04-03 17:49:00,59.7,40.5,29.90,SSW,196,2.0,3.0,49,0.00,,---,0.00,VWS V14.01,2013-04-04 00:49:00,
2013-04-03 17:54:00,59.6,39.4,29.90,SSW,196,3.0,3.0,47,0.00,,---,0.00,VWS V14.01,2013-04-04 00:54:00,
2013-04-03 17:59:00,59.5,40.3,29.90,South,179,2.0,5.0,49,0.00,,---,0.00,VWS V14.01,2013-04-04 00:59:00,
2013-04-03 18:04:00,59.3,39.6,29.90,SSW,205,1.0,5.0,48,0.00,,---,0.00,VWS V14.01,2013-04-04 01:04:00,
2013-04-03 18:09:00,59.1,40.0,29.90,SW,227,1.0,5.0,49,0.00,,---,0.00,VWS V14.01,2013-04-04 01:09:00,
2013-04-03 18:14:00,58.9,39.3,29.90,SSW,207,0.0,5.0,48,0.00,,---,0.00,VWS V14.01,2013-04-04 01:14:00,
2013-04-03 18:19:00,58.6,40.0,29.90,SSW,207,0.0,5.0,50,0.00,,---,0.00,VWS V14.01,2013-04-04 01:19:00,
2013-04-03 18:24:00,58.4,39.8,29.90,SSW,207,0.0,5.0,50,0.00,,---,0.00,VWS V14.01,2013-04-04 01:24:00,
2013-04-03 18:29:00,58.1,40.1,29.90,SSW,207,0.0,5.0,51,0.00,,---,0.00,VWS V14.01,2013-04-04 01:29:00,
2013-04-03 18:34:00,57.8,39.3,29.90,SSW,207,0.0,5.0,50,0.00,,---,0.00,VWS V14.01,2013-04-04 01:34:00,
2013-04-03 18:40:00,57.5,40.5,29.90,SSW,207,0.0,5.0,53,0.00,,---,0.00,VWS V14.01,2013-04-04 01:40:00,
2013-04-03 18:45:00,56.9,40.9,29.90,SSW,207,0.0,5.0,55,0.00,,---,0.00,VWS V14.01,2013-04-04 01:45:00,
2013-04-03 18:50:00,56.2,42.1,29.90,SSW,207,0.0,5.0,59,0.00,,---,0.00,VWS V14.01,2013-04-04 01:50:00,
2013-04-03 18:55:00,56.2,40.7,29.90,SSW,207,0.0,5.0,56,0.00,,---,0.00,VWS V14.01,2013-04-04 01:55:00,
2013-04-03 19:00:00,55.7,41.2,29.89,SSW,207,0.0,5.0,58,0.00,,---,0.00,VWS V14.01,2013-04-04 02:00:00,
2013-04-03 19:05:00,54.6,41.4,29.89,SSW,207,0.0,0.0,61,0.00,,---,0.00,VWS V14.01,2013-04-04 02:05:00,
2013-04-03 19:10:00,54.4,42.5,29.89,SSW,207,0.0,1.0,64,0.00,,---,0.00,VWS V14.01,2013-04-04 02:10:00,
2013-04-03 19:15:00,54.1,41.0,29.89,SSW,207,0.0,1.0,61,0.00,,---,0.00,VWS V14.01,2013-04-04 02:15:00,
2013-04-03 19:20:00,53.8,41.9,29.89,SSW,207,0.0,1.0,64,0.00,,---,0.00,VWS V14.01,2013-04-04 02:20:00,
2013-04-03 19:25:00,53.5,41.2,29.89,SSW,207,0.0,1.0,63,0.00,,---,0.00,VWS V14.01,2013-04-04 02:25:00,
2013-04-03 19:30:00,52.9,40.7,29.89,SSW,207,0.0,1.0,63,0.00,,---,0.00,VWS V14.01,2013-04-04 02:30:00,
2013-04-03 19:35:00,52.7,40.5,29.89,SSW,207,0.0,1.0,63,0.00,,---,0.00,VWS V14.01,2013-04-04 02:35:00,
2013-04-03 19:40:00,52.4,39.8,29.89,SSW,207,0.0,1.0,62,0.00,,---,0.00,VWS V14.01,2013-04-04 02:40:00,
2013-04-03 19:45:00,52.0,40.6,29.89,SSW,207,0.0,1.0,65,0.00,,---,0.00,VWS V14.01,2013-04-04 02:45:00,
2013-04-03 19:50:00,51.5,39.7,29.89,SSW,207,0.0,1.0,64,0.00,,---,0.00,VWS V14.01,2013-04-04 02:50:00,
2013-04-03 19:55:00,51.0,39.7,29.89,SSW,207,0.0,1.0,65,0.00,,---,0.00,VWS V14.01,2013-04-04 02:55:00,
2013-04-03 20:00:00,50.6,39.3,29.89,SSW,207,0.0,1.0,65,0.00,,---,0.00,VWS V14.01,2013-04-04 03:00:00,
2013-04-03 20:05:00,50.0,39.5,29.89,SSW,207,0.0,0.0,67,0.00,,---,0.00,VWS V14.01,2013-04-04 03:05:00,
2013-04-03 20:10:00,49.5,40.1,29.89,SSW,207,0.0,0.0,70,0.00,,---,0.00,VWS V14.01,2013-04-04 03:10:00,
2013-04-03 20:15:00,49.0,39.7,29.89,SSW,207,0.0,0.0,70,0.00,,---,0.00,VWS V14.01,2013-04-04 03:15:00,
2013-04-03 20:20:00,48.5,39.5,29.89,SSW,207,0.0,0.0,71,0.00,,---,0.00,VWS V14.01,2013-04-04 03:20:00,
2013-04-03 20:25:00,47.9,39.0,29.89,SSW,207,0.0,0.0,71,0.00,,---,0.00,VWS V14.01,2013-04-04 03:25:00,
2013-04-03 20:30:00,47.6,38.7,29.89,SSW,207,0.0,0.0,71,0.00,,---,0.00,VWS V14.01,2013-04-04 03:30:00,
2013-04-03 20:35:00,47.5,39.6,29.89,SSW,207,0.0,0.0,74,0.00,,---,0.00,VWS V14.01,2013-04-04 03:35:00,
2013-04-03 20:40:00,47.3,39.5,29.89,SSW,207,0.0,0.0,74,0.00,,---,0.00,VWS V14.01,2013-04-04 03:40:00,
2013-04-03 20:45:00,46.6,39.1,29.89,SSW,207,0.0,0.0,75,0.00,,---,0.00,VWS V14.01,2013-04-04 03:45:00,
2013-04-03 20:50:00,46.2,39.1,29.89,SSW,207,0.0,0.0,76,0.00,,---,0.00,VWS V14.01,2013-04-04 03:50:00,
2013-04-03 20:55:00,45.9,39.1,29.89,SSW,207,0.0,0.0,77,0.00,,---,0.00,VWS V14.01,2013-04-04 03:55:00,
2013-04-03 21:00:00,45.5,39.0,29.89,SSW,207,0.0,0.0,78,0.00,,---,0.00,VWS V14.01,2013-04-04 04:00:00,
2013-04-03 21:05:00,45.0,38.9,29.89,SSW,207,0.0,0.0,79,0.00,,---,0.00,VWS V14.01,2013-04-04 04:05:00,
2013-04-03 21:10:00,44.9,39.4,29.89,SSW,207,0.0,0.0,81,0.00,,---,0.00,VWS V14.01,2013-04-04 04:10:00,
2013-04-03 21:15:00,44.5,38.7,29.89,SSW,207,0.0,0.0,80,0.00,,---,0.00,VWS V14.01,2013-04-04 04:15:00,
2013-04-03 21:20:00,44.2,38.8,29.89,SSW,207,0.0,0.0,81,0.00,,---,0.00,VWS V14.01,2013-04-04 04:20:00,
2013-04-03 21:25:00,43.8,38.4,29.89,SSW,207,0.0,0.0,81,0.00,,---,0.00,VWS V14.01,2013-04-04 04:25:00,
2013-04-03 21:30:00,43.5,38.1,29.89,SSW,207,0.0,0.0,81,0.00,,---,0.00,VWS V14.01,2013-04-04 04:30:00,
2013-04-03 21:35:00,43.2,38.1,29.89,SSW,207,0.0,0.0,82,0.00,,---,0.00,VWS V14.01,2013-04-04 04:35:00,
2013-04-03 21:40:00,42.7,37.6,29.89,SSW,207,0.0,0.0,82,0.00,,---,0.00,VWS V14.01,2013-04-04 04:40:00,
2013-04-03 21:45:00,42.4,37.3,29.89,SSW,207,0.0,0.0,82,0.00,,---,0.00,VWS V14.01,2013-04-04 04:45:00,
2013-04-03 21:50:00,42.0,37.5,29.89,SSW,207,0.0,0.0,84,0.00,,---,0.00,VWS V14.01,2013-04-04 04:50:00,
2013-04-03 21:55:00,41.8,37.3,29.89,SSW,207,0.0,0.0,84,0.00,,---,0.00,VWS V14.01,2013-04-04 04:55:00,
2013-04-03 22:00:00,41.8,37.3,29.89,SSW,207,0.0,0.0,84,0.00,,---,0.00,VWS V14.01,2013-04-04 05:00:00,
2013-04-03 22:05:00,41.6,37.1,29.89,SSW,207,0.0,0.0,84,0.00,,---,0.00,VWS V14.01,2013-04-04 05:05:00,
2013-04-03 22:10:00,41.2,36.7,29.89,SSW,207,0.0,0.0,84,0.00,,---,0.00,VWS V14.01,2013-04-04 05:10:00,
2013-04-03 22:15:00,40.9,36.8,29.89,SSW,207,0.0,0.0,85,0.00,,---,0.00,VWS V14.01,2013-04-04 05:15:00,
2013-04-03 22:20:00,40.7,36.8,29.89,SSW,207,0.0,0.0,86,0.00,,---,0.00,VWS V14.01,2013-04-04 05:20:00,
2013-04-03 22:25:00,40.5,36.9,29.88,SSW,207,0.0,0.0,87,0.00,,---,0.00,VWS V14.01,2013-04-04 05:25:00,
2013-04-03 22:30:00,40.3,36.5,29.89,SSW,207,0.0,0.0,86,0.00,,---,0.00,VWS V14.01,2013-04-04 05:30:00,
2013-04-03 22:35:00,40.1,36.3,29.89,SSW,207,0.0,0.0,86,0.00,,---,0.00,VWS V14.01,2013-04-04 05:35:00,
2013-04-03 22:40:00,39.8,36.2,29.89,SSW,207,0.0,0.0,87,0.00,,---,0.00,VWS V14.01,2013-04-04 05:40:00,
2013-04-03 22:45:00,39.8,36.2,29.88,SSW,207,0.0,0.0,87,0.00,,---,0.00,VWS V14.01,2013-04-04 05:45:00,
2013-04-03 22:50:00,39.7,36.2,29.89,SSW,207,0.0,0.0,87,0.00,,---,0.00,VWS V14.01,2013-04-04 05:50:00,
2013-04-03 22:55:00,39.9,36.6,29.88,SSW,207,0.0,0.0,88,0.00,,---,0.00,VWS V14.01,2013-04-04 05:55:00,
2013-04-03 23:00:00,39.9,36.3,29.88,SSW,207,0.0,0.0,87,0.00,,---,0.00,VWS V14.01,2013-04-04 06:00:00,
2013-04-03 23:05:00,39.5,36.0,29.88,SSW,207,0.0,0.0,87,0.00,,---,0.00,VWS V14.01,2013-04-04 06:05:00,
2013-04-03 23:10:00,39.4,36.2,29.88,SSW,207,0.0,0.0,88,0.00,,---,0.00,VWS V14.01,2013-04-04 06:10:00,
2013-04-03 23:15:00,39.4,36.7,29.88,SSW,207,0.0,1.0,90,0.00,,---,0.00,VWS V14.01,2013-04-04 06:15:00,
2013-04-03 23:20:00,39.6,37.2,29.89,SSW,207,0.0,1.0,91,0.00,,---,0.00,VWS V14.01,2013-04-04 06:20:00,
2013-04-03 23:25:00,39.5,36.8,29.89,SSW,207,0.0,1.0,90,0.00,,---,0.00,VWS V14.01,2013-04-04 06:25:00,
2013-04-03 23:30:00,39.1,36.1,29.89,SSW,207,0.0,1.0,89,0.00,,---,0.00,VWS V14.01,2013-04-04 06:30:00,
2013-04-03 23:35:00,38.9,36.2,29.89,SSW,207,0.0,1.0,90,0.00,,---,0.00,VWS V14.01,2013-04-04 06:35:00,
2013-04-03 23:40:00,38.5,35.8,29.88,SSW,207,0.0,1.0,90,0.00,,---,0.00,VWS V14.01,2013-04-04 06:40:00,
2013-04-03 23:45:00,38.3,35.9,29.88,SSW,207,0.0,1.0,91,0.00,,---,0.00,VWS V14.01,2013-04-04 06:45:00,
2013-04-03 23:50:00,38.1,35.7,29.88,SSW,207,0.0,1.0,91,0.00,,---,0.00,VWS V14.01,2013-04-04 06:50:00,
2013-04-03 23:55:00,37.8,35.4,29.89,SSW,207,0.0,1.0,91,0.00,,---,0.00,VWS V14.01,2013-04-04 06:55:00,